TimeEST,TemperatureF,Dew PointF,Humidity,Sea Level PressureIn,VisibilityMPH,Wind Direction,Wind SpeedMPH,Gust SpeedMPH,PrecipitationIn,Events,Conditions,WindDirDegrees,DateUTC
12:56 AM,33.1,28.0,82,30.27,10.0,WNW,5.8,-,N/A,,Clear,300,2012-12-15 05:56:00
1:56 AM,33.1,28.0,82,30.27,10.0,NW,6.9,-,N/A,,Clear,310,2012-12-15 06:56:00
2:56 AM,32.0,28.0,85,30.28,10.0,NW,5.8,-,N/A,,Clear,310,2012-12-15 07:56:00
3:56 AM,32.0,28.0,85,30.26,10.0,NW,4.6,-,N/A,,Clear,320,2012-12-15 08:56:00
4:56 AM,33.1,28.0,82,30.27,10.0,NW,3.5,-,N/A,,Clear,310,2012-12-15 09:56:00
5:56 AM,33.1,28.9,85,30.27,10.0,NW,5.8,-,N/A,,Clear,310,2012-12-15 10:56:00
6:56 AM,33.1,28.0,82,30.29,10.0,NW,5.8,-,N/A,,Clear,310,2012-12-15 11:56:00
7:56 AM,33.1,28.0,82,30.30,10.0,WNW,4.6,-,N/A,,Clear,300,2012-12-15 12:56:00
8:56 AM,36.0,30.0,79,30.31,10.0,Calm,Calm,-,N/A,,Clear,0,2012-12-15 13:56:00
9:56 AM,43.0,35.1,74,30.32,10.0,Calm,Calm,-,N/A,,Clear,0,2012-12-15 14:56:00
10:56 AM,45.0,34.0,65,30.30,10.0,NE,3.5,-,N/A,,Clear,50,2012-12-15 15:56:00
11:56 AM,46.9,35.1,63,30.27,10.0,Calm,Calm,-,N/A,,Clear,0,2012-12-15 16:56:00
12:56 PM,48.9,33.1,54,30.26,10.0,SSW,3.5,-,N/A,,Clear,210,2012-12-15 17:56:00
1:56 PM,50.0,34.0,54,30.22,10.0,Calm,Calm,-,N/A,,Clear,0,2012-12-15 18:56:00
2:56 PM,48.9,37.0,64,30.21,10.0,Calm,Calm,-,N/A,,Clear,0,2012-12-15 19:56:00
3:56 PM,48.9,37.0,64,30.20,10.0,ENE,3.5,-,N/A,,Clear,60,2012-12-15 20:56:00
4:56 PM,48.9,36.0,61,30.19,10.0,SSE,9.2,-,N/A,,Clear,160,2012-12-15 21:56:00
5:56 PM,48.0,37.0,66,30.20,10.0,South,9.2,-,N/A,,Clear,170,2012-12-15 22:56:00
6:56 PM,46.9,37.9,71,30.19,10.0,South,4.6,-,N/A,,Partly Cloudy,170,2012-12-15 23:56:00
7:56 PM,46.9,37.9,71,30.17,10.0,SSE,4.6,-,N/A,,Mostly Cloudy,160,2012-12-16 00:56:00
8:56 PM,46.9,37.0,68,30.17,10.0,South,6.9,-,N/A,,Mostly Cloudy,170,2012-12-16 01:56:00
9:56 PM,46.9,39.0,74,30.16,10.0,South,4.6,-,0.02,Rain,Light Rain,180,2012-12-16 02:56:00
10:56 PM,45.0,37.9,76,30.15,10.0,Calm,Calm,-,0.00,Rain,Light Rain,0,2012-12-16 03:56:00
11:56 PM,44.1,41.0,89,30.17,10.0,Calm,Calm,-,0.00,Rain,Light Rain,0,2012-12-16 04:56:00